Home   Weather   Rawalpindi   Past weeks

Flag for Pakistan Past Weather in Rawalpindi, Pakistan — Yesterday and Last 2 Weeks

66 °F


Feels Like: 66 °F
Forecast: 58 / 84 °F
Wind: 5 mph from Northeast

Location: Islamabad Airport

Current Time: Oct 27, 2016 at 12:33:48 AM

Latest Report: Oct 27, 2016 at 12:00 AM

Visibility: 2 mi

Pressure: 30.01 "Hg (28.30 "Hg at 501m altitude)

Humidity: 64%

Dew Point: 54 °F

Location of RawalpindiLocation

Past Weather in Rawalpindi — Graph


Rawalpindi Temperature Yesterday

Maximum temperature yesterday: 84 °F (at 1:00 PM)
Minimum temperature yesterday: 63 °F (at 3:00 AM)
Average temperature yesterday: 69 °F

High & Low Weather Summary for the Past Weeks

High93 °F (Oct 13, 2:00 PM)78% (Oct 20, 3:00 AM)30.04 "Hg (Oct 20, 3:00 AM)
Low59 °F (Oct 24, 5:00 AM)23% (Oct 25, 4:00 PM)29.74 "Hg (Oct 12, 3:00 PM)
Average76 °F51%29.88 "Hg
* Reported Oct 11 11:00 PM — Oct 26 11:30 PM, Rawalpindi, Weather by CustomWeather, © 2016

Note: Actual official high and low records may vary slightly from our data, if they occured in-between our weather recording intervals... More about our weather records


Rawalpindi Weather History for the Previous 24 Hours

Scroll right to see more
Time TempWeatherWind HumidityBarometerVisibility
11:30 PM
Wed, Oct 26
68 °FHaze.5 mph64%30.04 "Hg2 mi
9:00 PM70 °FHaze.9 mph60%30.01 "Hg2 mi
8:30 PM72 °FHaze.9 mph53%29.98 "Hg2 mi
8:00 PM72 °FHaze.9 mph53%29.98 "Hg2 mi
7:00 PM75 °FHaze.9 mph54%29.98 "Hg2 mi
1:30 PM84 °FHaze.12 mph33%29.95 "Hg2 mi
1:00 PM84 °FClear.12 mph33%29.98 "Hg2 mi
12:30 PM82 °FClear.5 mph35%29.98 "Hg2 mi
12:00 PM82 °FClear.5 mph35%29.98 "Hg2 mi
11:00 AM77 °FHaze.5 mph44%30.01 "Hg2 mi
10:30 AM73 °FHaze.5 mph47%30.01 "Hg2 mi
10:00 AM73 °FHaze.5 mph47%30.01 "Hg2 mi
9:30 AM70 °FHaze.5 mph53%30.01 "Hg2 mi
9:00 AM70 °FHaze.5 mph53%30.01 "Hg2 mi
8:00 AM63 °FHaze.5 mph68%29.98 "Hg2 mi
7:30 AM63 °FHaze.5 mph68%29.95 "Hg2 mi
7:00 AM63 °FHaze.5 mph68%29.95 "Hg2 mi
6:00 AM63 °FHaze.No wind68%29.92 "Hg2 mi
5:30 AM63 °FHaze.No wind68%29.89 "Hg2 mi
5:00 AM63 °FHaze.No wind68%29.89 "Hg2 mi
4:30 AM63 °FHaze.No wind68%29.89 "Hg2 mi
4:00 AM63 °FHaze.No wind68%29.89 "Hg2 mi
3:30 AM63 °FHaze.No wind73%29.89 "Hg2 mi
3:00 AM63 °FHaze.No wind73%29.89 "Hg2 mi
2:30 AM64 °FHaze.No wind68%29.89 "Hg2 mi
2:00 AM64 °FHaze.No wind68%29.89 "Hg2 mi
1:30 AM64 °FHaze.No wind68%29.89 "Hg2 mi
1:00 AM64 °FHaze.No wind68%29.89 "Hg2 mi
12:30 AM66 °FHaze.5 mph64%29.92 "Hg2 mi
12:00 AM66 °FHaze.5 mph64%29.92 "Hg2 mi
Weather by CustomWeather, © 2016

See weather overviewHow to use our weather pages